Year,Month,Day,Hour,Minute,Value (Times are PST for temperature in C)
2016,08,19,00,00,19.00
2016,08,19,00,01,18.80
2016,08,19,00,02,18.70
2016,08,19,00,03,18.60
2016,08,19,00,04,18.60
2016,08,19,00,05,18.50
2016,08,19,00,06,18.50
2016,08,19,00,07,18.50
2016,08,19,00,08,18.60
2016,08,19,00,09,18.60
2016,08,19,00,10,18.60
2016,08,19,00,11,18.60
2016,08,19,00,12,18.60
2016,08,19,00,13,18.50
2016,08,19,00,14,18.40
2016,08,19,00,15,18.40
2016,08,19,00,16,18.30
2016,08,19,00,17,18.30
2016,08,19,00,18,18.30
2016,08,19,00,19,18.30
2016,08,19,00,20,18.30
2016,08,19,00,21,18.20
2016,08,19,00,22,18.20
2016,08,19,00,23,18.10
2016,08,19,00,24,18.10
2016,08,19,00,25,18.10
2016,08,19,00,26,18.10
2016,08,19,00,27,18.00
2016,08,19,00,28,18.00
2016,08,19,00,29,18.00
2016,08,19,00,30,18.00
2016,08,19,00,31,17.90
2016,08,19,00,32,17.80
2016,08,19,00,33,17.80
2016,08,19,00,34,17.70
2016,08,19,00,35,17.60
2016,08,19,00,36,17.60
2016,08,19,00,37,17.70
2016,08,19,00,38,17.80
2016,08,19,00,39,17.80
2016,08,19,00,40,17.80
2016,08,19,00,41,17.70
2016,08,19,00,42,17.70
2016,08,19,00,43,17.70
2016,08,19,00,44,17.60
2016,08,19,00,45,17.60
2016,08,19,00,46,17.60
2016,08,19,00,47,17.60
2016,08,19,00,48,17.50
2016,08,19,00,49,17.40
2016,08,19,00,50,17.40
2016,08,19,00,51,17.50
2016,08,19,00,52,17.50
2016,08,19,00,53,17.60
2016,08,19,00,54,17.60
2016,08,19,00,55,17.70
2016,08,19,00,56,17.60
2016,08,19,00,57,17.70
2016,08,19,00,58,18.00
2016,08,19,00,59,18.10
2016,08,19,01,00,18.20
2016,08,19,01,01,18.30
2016,08,19,01,02,18.30
2016,08,19,01,03,18.30
2016,08,19,01,04,18.30
2016,08,19,01,05,18.30
2016,08,19,01,06,18.30
2016,08,19,01,07,18.20
2016,08,19,01,08,18.20
2016,08,19,01,09,18.20
2016,08,19,01,10,18.20
2016,08,19,01,11,18.30
2016,08,19,01,12,18.30
2016,08,19,01,13,18.30
2016,08,19,01,14,18.30
2016,08,19,01,15,18.30
2016,08,19,01,16,18.30
2016,08,19,01,17,18.50
2016,08,19,01,18,18.60
2016,08,19,01,19,18.80
2016,08,19,01,20,18.80
2016,08,19,01,21,18.90
2016,08,19,01,22,19.00
2016,08,19,01,23,19.20
2016,08,19,01,24,19.20
2016,08,19,01,25,19.30
2016,08,19,01,26,19.30
2016,08,19,01,27,19.40
2016,08,19,01,28,19.40
2016,08,19,01,29,19.40
2016,08,19,01,30,19.40
2016,08,19,01,31,19.40
2016,08,19,01,32,19.40
2016,08,19,01,33,19.40
2016,08,19,01,34,19.40
2016,08,19,01,35,19.30
2016,08,19,01,36,19.20
2016,08,19,01,37,19.20
2016,08,19,01,38,19.20
2016,08,19,01,39,19.20
2016,08,19,01,40,19.20
2016,08,19,01,41,19.20
2016,08,19,01,42,19.20
2016,08,19,01,43,19.30
2016,08,19,01,44,19.30
2016,08,19,01,45,19.30
2016,08,19,01,46,19.40
2016,08,19,01,47,19.40
2016,08,19,01,48,19.40
2016,08,19,01,49,19.40
2016,08,19,01,50,19.40
2016,08,19,01,51,19.50
2016,08,19,01,52,19.70
2016,08,19,01,53,19.70
2016,08,19,01,54,19.80
2016,08,19,01,55,19.70
2016,08,19,01,56,19.80
2016,08,19,01,57,19.80
2016,08,19,01,58,19.90
2016,08,19,01,59,20.00
2016,08,19,02,00,20.00
2016,08,19,02,01,20.10
2016,08,19,02,02,20.00
2016,08,19,02,03,20.00
2016,08,19,02,04,20.00
2016,08,19,02,05,20.10
2016,08,19,02,06,20.10
2016,08,19,02,07,20.10
2016,08,19,02,08,20.10
2016,08,19,02,09,20.10
2016,08,19,02,10,20.20
2016,08,19,02,11,20.20
2016,08,19,02,12,20.30
2016,08,19,02,13,20.30
2016,08,19,02,14,20.30
2016,08,19,02,15,20.30
2016,08,19,02,16,20.30
2016,08,19,02,17,20.30
2016,08,19,02,18,20.30
2016,08,19,02,19,20.20
2016,08,19,02,20,20.20
2016,08,19,02,21,20.20
2016,08,19,02,22,20.20
2016,08,19,02,23,20.10
2016,08,19,02,24,20.10
2016,08,19,02,25,20.10
2016,08,19,02,26,20.10
2016,08,19,02,27,20.00
2016,08,19,02,28,20.00
2016,08,19,02,29,19.90
2016,08,19,02,30,19.90
2016,08,19,02,31,19.80
2016,08,19,02,32,19.80
2016,08,19,02,33,19.80
2016,08,19,02,34,19.80
2016,08,19,02,35,19.80
2016,08,19,02,36,19.70
2016,08,19,02,37,19.70
2016,08,19,02,38,19.70
2016,08,19,02,39,19.70
2016,08,19,02,40,19.80
2016,08,19,02,41,19.80
2016,08,19,02,42,19.90
2016,08,19,02,43,20.00
2016,08,19,02,44,20.10
2016,08,19,02,45,20.10
2016,08,19,02,46,20.20
2016,08,19,02,47,20.20
2016,08,19,02,48,20.20
2016,08,19,02,49,20.20
2016,08,19,02,50,20.10
2016,08,19,02,51,20.10
2016,08,19,02,52,20.00
2016,08,19,02,53,19.90
2016,08,19,02,54,19.90
2016,08,19,02,55,19.90
2016,08,19,02,56,19.90
2016,08,19,02,57,20.00
2016,08,19,02,58,20.00
2016,08,19,02,59,20.00
2016,08,19,03,00,20.00
2016,08,19,03,01,20.00
2016,08,19,03,02,20.00
2016,08,19,03,03,20.10
2016,08,19,03,04,20.10
2016,08,19,03,05,20.20
2016,08,19,03,06,20.20
2016,08,19,03,07,20.20
2016,08,19,03,08,20.20
2016,08,19,03,09,20.20
2016,08,19,03,10,20.20
2016,08,19,03,11,20.10
2016,08,19,03,12,20.10
2016,08,19,03,13,20.10
2016,08,19,03,14,20.10
2016,08,19,03,15,20.10
2016,08,19,03,16,20.10
2016,08,19,03,17,20.10
2016,08,19,03,18,20.10
2016,08,19,03,19,20.10
2016,08,19,03,20,20.10
2016,08,19,03,21,20.10
2016,08,19,03,22,20.10
2016,08,19,03,23,20.10
2016,08,19,03,24,20.10
2016,08,19,03,25,20.00
2016,08,19,03,26,20.00
2016,08,19,03,27,20.00
2016,08,19,03,28,20.00
2016,08,19,03,29,20.00
2016,08,19,03,30,20.10
2016,08,19,03,31,20.20
2016,08,19,03,32,20.20
2016,08,19,03,33,20.30
2016,08,19,03,34,20.30
2016,08,19,03,35,20.30
2016,08,19,03,36,20.30
2016,08,19,03,37,20.30
2016,08,19,03,38,20.20
2016,08,19,03,39,20.20
2016,08,19,03,40,20.10
2016,08,19,03,41,20.10
2016,08,19,03,42,20.10
2016,08,19,03,43,20.10
2016,08,19,03,44,20.10
2016,08,19,03,45,20.10
2016,08,19,03,46,20.10
2016,08,19,03,47,20.10
2016,08,19,03,48,20.10
2016,08,19,03,49,20.10
2016,08,19,03,50,20.10
2016,08,19,03,51,20.10
2016,08,19,03,52,20.10
2016,08,19,03,53,20.20
2016,08,19,03,54,20.20
2016,08,19,03,55,20.20
2016,08,19,03,56,20.20
2016,08,19,03,57,20.20
2016,08,19,03,58,20.20
2016,08,19,03,59,20.30
2016,08,19,04,00,20.30
2016,08,19,04,01,20.30
2016,08,19,04,02,20.40
2016,08,19,04,03,20.40
2016,08,19,04,04,20.40
2016,08,19,04,05,20.40
2016,08,19,04,06,20.40
2016,08,19,04,07,20.30
2016,08,19,04,08,20.30
2016,08,19,04,09,20.30
2016,08,19,04,10,20.30
2016,08,19,04,11,20.30
2016,08,19,04,12,20.30
2016,08,19,04,13,20.30
2016,08,19,04,14,20.30
2016,08,19,04,15,20.30
2016,08,19,04,16,20.20
2016,08,19,04,17,20.20
2016,08,19,04,18,20.20
2016,08,19,04,19,20.10
2016,08,19,04,20,20.10
2016,08,19,04,21,20.10
2016,08,19,04,22,20.20
2016,08,19,04,23,20.20
2016,08,19,04,24,20.30
2016,08,19,04,25,20.30
2016,08,19,04,26,20.30
2016,08,19,04,27,20.30
2016,08,19,04,28,20.30
2016,08,19,04,29,20.30
2016,08,19,04,30,20.30
2016,08,19,04,31,20.30
2016,08,19,04,32,20.30
2016,08,19,04,33,20.30
2016,08,19,04,34,20.30
2016,08,19,04,35,20.30
2016,08,19,04,36,20.30
2016,08,19,04,37,20.30
2016,08,19,04,38,20.30
2016,08,19,04,39,20.20
2016,08,19,04,40,20.20
2016,08,19,04,41,20.10
2016,08,19,04,42,20.00
2016,08,19,04,43,19.90
2016,08,19,04,44,19.70
2016,08,19,04,45,19.70
2016,08,19,04,46,19.70
2016,08,19,04,47,19.60
2016,08,19,04,48,19.60
2016,08,19,04,49,19.70
2016,08,19,04,50,19.70
2016,08,19,04,51,19.80
2016,08,19,04,52,19.80
2016,08,19,04,53,19.80
2016,08,19,04,54,19.80
2016,08,19,04,55,19.80
2016,08,19,04,56,19.80
2016,08,19,04,57,19.80
2016,08,19,04,58,19.80
2016,08,19,04,59,19.70
2016,08,19,05,00,19.70
2016,08,19,05,01,19.70
2016,08,19,05,02,19.70
2016,08,19,05,03,19.80
2016,08,19,05,04,19.70
2016,08,19,05,05,19.70
2016,08,19,05,06,19.70
2016,08,19,05,07,19.60
2016,08,19,05,08,19.60
2016,08,19,05,09,19.60
2016,08,19,05,10,19.50
2016,08,19,05,11,19.50
2016,08,19,05,12,19.40
2016,08,19,05,13,19.40
2016,08,19,05,14,19.40
2016,08,19,05,15,19.40
2016,08,19,05,16,19.40
2016,08,19,05,17,19.50
2016,08,19,05,18,19.50
2016,08,19,05,19,19.60
2016,08,19,05,20,19.60
2016,08,19,05,21,19.70
2016,08,19,05,22,19.80
2016,08,19,05,23,19.80
2016,08,19,05,24,19.80
2016,08,19,05,25,19.80
2016,08,19,05,26,19.80
2016,08,19,05,27,19.80
2016,08,19,05,28,19.80
2016,08,19,05,29,19.80
2016,08,19,05,30,19.80
2016,08,19,05,31,19.80
2016,08,19,05,32,19.80
2016,08,19,05,33,19.70
2016,08,19,05,34,19.60
2016,08,19,05,35,19.50
2016,08,19,05,36,19.40
2016,08,19,05,37,19.50
2016,08,19,05,38,19.50
2016,08,19,05,39,19.60
2016,08,19,05,40,19.50
2016,08,19,05,41,19.40
2016,08,19,05,42,19.30
2016,08,19,05,43,19.20
2016,08,19,05,44,19.10
2016,08,19,05,45,19.00
2016,08,19,05,46,18.90
2016,08,19,05,47,18.90
2016,08,19,05,48,18.80
2016,08,19,05,49,18.70
2016,08,19,05,50,18.60
2016,08,19,05,51,18.50
2016,08,19,05,52,18.50
2016,08,19,05,53,18.40
2016,08,19,05,54,18.30
2016,08,19,05,55,18.20
2016,08,19,05,56,18.10
2016,08,19,05,57,18.00
2016,08,19,05,58,18.00
2016,08,19,05,59,17.90
2016,08,19,06,00,17.90
2016,08,19,06,01,17.90
2016,08,19,06,02,17.90
2016,08,19,06,03,18.00
2016,08,19,06,04,18.10
2016,08,19,06,05,18.20
2016,08,19,06,06,18.40
2016,08,19,06,07,18.60
2016,08,19,06,08,18.80
2016,08,19,06,09,19.00
2016,08,19,06,10,19.00
2016,08,19,06,11,19.10
2016,08,19,06,12,19.10
2016,08,19,06,13,19.10
2016,08,19,06,14,19.00
2016,08,19,06,15,18.90
2016,08,19,06,16,18.80
2016,08,19,06,17,18.70
2016,08,19,06,18,18.60
2016,08,19,06,19,18.60
2016,08,19,06,20,18.50
2016,08,19,06,21,18.40
2016,08,19,06,22,18.30
2016,08,19,06,23,18.30
2016,08,19,06,24,18.30
2016,08,19,06,25,18.30
2016,08,19,06,26,18.40
2016,08,19,06,27,18.40
2016,08,19,06,28,18.40
2016,08,19,06,29,18.40
2016,08,19,06,30,18.50
2016,08,19,06,31,18.60
2016,08,19,06,32,18.70
2016,08,19,06,33,18.80
2016,08,19,06,34,18.90
2016,08,19,06,35,18.90
2016,08,19,06,36,18.90
2016,08,19,06,37,18.90
2016,08,19,06,38,19.00
2016,08,19,06,39,19.00
2016,08,19,06,40,19.00
2016,08,19,06,41,19.10
2016,08,19,06,42,19.10
2016,08,19,06,43,19.20
2016,08,19,06,44,19.20
2016,08,19,06,45,19.30
2016,08,19,06,46,19.40
2016,08,19,06,47,19.40
2016,08,19,06,48,19.40
2016,08,19,06,49,19.40
2016,08,19,06,50,19.40
2016,08,19,06,51,19.40
2016,08,19,06,52,19.40
2016,08,19,06,53,19.40
2016,08,19,06,54,19.50
2016,08,19,06,55,19.50
2016,08,19,06,56,19.50
2016,08,19,06,57,19.50
2016,08,19,06,58,19.50
2016,08,19,06,59,19.50
2016,08,19,07,00,19.50
2016,08,19,07,01,19.40
2016,08,19,07,02,19.50
2016,08,19,07,03,19.50
2016,08,19,07,04,19.50
2016,08,19,07,05,19.40
2016,08,19,07,06,19.40
2016,08,19,07,07,19.40
2016,08,19,07,08,19.40
2016,08,19,07,09,19.50
2016,08,19,07,10,19.50
2016,08,19,07,11,19.50
2016,08,19,07,12,19.50
2016,08,19,07,13,19.50
2016,08,19,07,14,19.50
2016,08,19,07,15,19.50
2016,08,19,07,16,19.40
2016,08,19,07,17,19.40
2016,08,19,07,18,19.40
2016,08,19,07,19,19.40
2016,08,19,07,20,19.40
2016,08,19,07,21,19.40
2016,08,19,07,22,19.40
2016,08,19,07,23,19.40
2016,08,19,07,24,19.40
2016,08,19,07,25,19.30
2016,08,19,07,26,19.40
2016,08,19,07,27,19.40
2016,08,19,07,28,19.30
2016,08,19,07,29,19.40
2016,08,19,07,30,19.40
2016,08,19,07,31,19.40
2016,08,19,07,32,19.40
2016,08,19,07,33,19.40
2016,08,19,07,34,19.50
2016,08,19,07,35,19.50
2016,08,19,07,36,19.50
2016,08,19,07,37,19.50
2016,08,19,07,38,19.50
2016,08,19,07,39,19.50
2016,08,19,07,40,19.50
2016,08,19,07,41,19.40
2016,08,19,07,42,19.40
2016,08,19,07,43,19.40
2016,08,19,07,44,19.40
2016,08,19,07,45,19.50
2016,08,19,07,46,19.50
2016,08,19,07,47,19.60
2016,08,19,07,48,19.60
2016,08,19,07,49,19.60
2016,08,19,07,50,19.60
2016,08,19,07,51,19.60
2016,08,19,07,52,19.70
2016,08,19,07,53,19.70
2016,08,19,07,54,19.60
2016,08,19,07,55,19.60
2016,08,19,07,56,19.60
2016,08,19,07,57,19.60
2016,08,19,07,58,19.60
2016,08,19,07,59,19.50
2016,08,19,08,00,19.50
2016,08,19,08,01,19.50
2016,08,19,08,02,19.60
2016,08,19,08,03,19.60
2016,08,19,08,04,19.60
2016,08,19,08,05,19.60
2016,08,19,08,06,19.70
2016,08,19,08,07,19.70
2016,08,19,08,08,19.70
2016,08,19,08,09,19.70
2016,08,19,08,10,19.70
2016,08,19,08,11,19.70
2016,08,19,08,12,19.70
2016,08,19,08,13,19.80
2016,08,19,08,14,19.80
2016,08,19,08,15,19.80
2016,08,19,08,16,19.80
2016,08,19,08,17,19.80
2016,08,19,08,18,19.80
2016,08,19,08,19,19.80
2016,08,19,08,20,19.80
2016,08,19,08,21,19.80
2016,08,19,08,22,19.80
2016,08,19,08,23,19.80
2016,08,19,08,24,19.80
2016,08,19,08,25,19.80
2016,08,19,08,26,19.80
2016,08,19,08,27,19.80
2016,08,19,08,28,19.80
2016,08,19,08,29,19.90
2016,08,19,08,30,19.90
2016,08,19,08,31,19.90
2016,08,19,08,32,19.90
2016,08,19,08,33,19.90
2016,08,19,08,34,20.00
2016,08,19,08,35,20.00
2016,08,19,08,36,20.10
2016,08,19,08,37,20.10
2016,08,19,08,38,20.10
2016,08,19,08,39,20.20
2016,08,19,08,40,20.20
2016,08,19,08,41,20.30
2016,08,19,08,42,20.30
2016,08,19,08,43,20.40
2016,08,19,08,44,20.40
2016,08,19,08,45,20.40
2016,08,19,08,46,20.40
2016,08,19,08,47,20.50
2016,08,19,08,48,20.50
2016,08,19,08,49,20.50
2016,08,19,08,50,20.60
2016,08,19,08,51,20.60
2016,08,19,08,52,20.60
2016,08,19,08,53,20.60
2016,08,19,08,54,20.60
2016,08,19,08,55,20.60
2016,08,19,08,56,20.60
2016,08,19,08,57,20.60
2016,08,19,08,58,20.60
2016,08,19,08,59,20.60
2016,08,19,09,00,20.60
2016,08,19,09,01,20.60
2016,08,19,09,02,20.60
2016,08,19,09,03,20.60
2016,08,19,09,04,20.60
2016,08,19,09,05,20.60
2016,08,19,09,06,20.70
2016,08,19,09,07,20.70
2016,08,19,09,08,20.70
2016,08,19,09,09,20.80
2016,08,19,09,10,20.80
2016,08,19,09,11,20.90
2016,08,19,09,12,20.90
2016,08,19,09,13,20.90
2016,08,19,09,14,20.90
2016,08,19,09,15,20.90
2016,08,19,09,16,20.90
2016,08,19,09,17,20.90
2016,08,19,09,18,20.90
2016,08,19,09,19,20.90
2016,08,19,09,20,20.90
2016,08,19,09,21,20.90
2016,08,19,09,22,20.90
2016,08,19,09,23,20.90
2016,08,19,09,24,21.00
2016,08,19,09,25,21.00
2016,08,19,09,26,21.00
2016,08,19,09,27,21.00
2016,08,19,09,28,21.00
2016,08,19,09,29,21.00
2016,08,19,09,30,21.00
2016,08,19,09,31,21.00
2016,08,19,09,32,21.00
2016,08,19,09,33,21.00
2016,08,19,09,34,21.00
2016,08,19,09,35,21.00
2016,08,19,09,36,21.00
2016,08,19,09,37,21.10
2016,08,19,09,38,21.10
2016,08,19,09,39,21.10
2016,08,19,09,40,21.20
2016,08,19,09,41,21.30
2016,08,19,09,42,21.30
2016,08,19,09,43,21.40
2016,08,19,09,44,21.50
2016,08,19,09,45,21.50
2016,08,19,09,46,21.60
2016,08,19,09,47,21.60
2016,08,19,09,48,21.70
2016,08,19,09,49,21.70
2016,08,19,09,50,21.80
2016,08,19,09,51,21.90
2016,08,19,09,52,22.00
2016,08,19,09,53,22.20
2016,08,19,09,54,22.20
2016,08,19,09,55,22.30
2016,08,19,09,56,22.40
2016,08,19,09,57,22.50
2016,08,19,09,58,22.60
2016,08,19,09,59,22.80
2016,08,19,10,00,22.90
2016,08,19,10,01,22.90
2016,08,19,10,02,23.00
2016,08,19,10,03,23.10
2016,08,19,10,04,23.30
2016,08,19,10,05,23.30
2016,08,19,10,06,23.30
2016,08,19,10,07,23.30
2016,08,19,10,08,23.20
2016,08,19,10,09,23.20
2016,08,19,10,10,23.20
2016,08,19,10,11,23.20
2016,08,19,10,12,23.10
2016,08,19,10,13,23.10
2016,08,19,10,14,23.10
2016,08,19,10,15,23.10
2016,08,19,10,16,23.20
2016,08,19,10,17,23.20
2016,08,19,10,18,23.20
2016,08,19,10,19,23.30
2016,08,19,10,20,23.20
2016,08,19,10,21,23.20
2016,08,19,10,22,23.20
2016,08,19,10,23,23.30
2016,08,19,10,24,23.30
2016,08,19,10,25,23.30
2016,08,19,10,26,23.30
2016,08,19,10,27,23.40
2016,08,19,10,28,23.40
2016,08,19,10,29,23.40
2016,08,19,10,30,23.40
2016,08,19,10,31,23.50
2016,08,19,10,32,23.60
2016,08,19,10,33,23.50
2016,08,19,10,34,23.40
2016,08,19,10,35,23.40
2016,08,19,10,36,23.40
2016,08,19,10,37,23.40
2016,08,19,10,38,23.50
2016,08,19,10,39,23.50
2016,08,19,10,40,23.40
2016,08,19,10,41,23.40
2016,08,19,10,42,23.40
2016,08,19,10,43,23.40
2016,08,19,10,44,23.30
2016,08,19,10,45,23.40
2016,08,19,10,46,23.50
2016,08,19,10,47,23.60
2016,08,19,10,48,23.70
2016,08,19,10,49,23.80
2016,08,19,10,50,23.90
2016,08,19,10,51,24.10
2016,08,19,10,52,24.30
2016,08,19,10,53,24.40
2016,08,19,10,54,24.50
2016,08,19,10,55,24.60
2016,08,19,10,56,24.70
2016,08,19,10,57,24.80
2016,08,19,10,58,24.60
2016,08,19,10,59,24.40
2016,08,19,11,00,24.30
2016,08,19,11,01,24.30
2016,08,19,11,02,24.30
2016,08,19,11,03,24.20
2016,08,19,11,04,24.00
2016,08,19,11,05,23.90
2016,08,19,11,06,23.90
2016,08,19,11,07,23.80
2016,08,19,11,08,23.80
2016,08,19,11,09,23.90
2016,08,19,11,10,24.10
2016,08,19,11,11,24.20
2016,08,19,11,12,24.30
2016,08,19,11,13,24.30
2016,08,19,11,14,24.20
2016,08,19,11,15,24.10
2016,08,19,11,16,24.10
2016,08,19,11,17,24.10
2016,08,19,11,18,24.10
2016,08,19,11,19,24.10
2016,08,19,11,20,24.10
2016,08,19,11,21,24.10
2016,08,19,11,22,24.10
2016,08,19,11,23,24.20
2016,08,19,11,24,24.30
2016,08,19,11,25,24.40
2016,08,19,11,26,24.60
2016,08,19,11,27,24.70
2016,08,19,11,28,24.70
2016,08,19,11,29,24.80
2016,08,19,11,30,24.80
2016,08,19,11,31,24.70
2016,08,19,11,32,24.70
2016,08,19,11,33,24.70
2016,08,19,11,34,24.70
2016,08,19,11,35,24.80
2016,08,19,11,36,24.90
2016,08,19,11,37,24.70
2016,08,19,11,38,24.60
2016,08,19,11,39,24.60
2016,08,19,11,40,24.70
2016,08,19,11,41,24.80
2016,08,19,11,42,24.80
2016,08,19,11,43,24.90
2016,08,19,11,44,24.90
2016,08,19,11,45,24.80
2016,08,19,11,46,24.80
2016,08,19,11,47,24.80
2016,08,19,11,48,24.80
2016,08,19,11,49,24.90
2016,08,19,11,50,25.00
2016,08,19,11,51,25.10
2016,08,19,11,52,25.30
2016,08,19,11,53,25.30
2016,08,19,11,54,25.20
2016,08,19,11,55,25.20
2016,08,19,11,56,25.20
2016,08,19,11,57,25.10
2016,08,19,11,58,25.10
2016,08,19,11,59,25.10
2016,08,19,12,00,25.20
2016,08,19,12,01,25.20
2016,08,19,12,02,25.20
2016,08,19,12,03,25.20
2016,08,19,12,04,25.30
2016,08,19,12,05,25.30
2016,08,19,12,06,25.20
2016,08,19,12,07,25.20
2016,08,19,12,08,25.20
2016,08,19,12,09,25.10
2016,08,19,12,10,25.10
2016,08,19,12,11,25.00
2016,08,19,12,12,24.90
2016,08,19,12,13,24.80
2016,08,19,12,14,24.80
2016,08,19,12,15,24.80
2016,08,19,12,16,24.80
2016,08,19,12,17,24.80
2016,08,19,12,18,24.80
2016,08,19,12,19,24.80
2016,08,19,12,20,24.80
2016,08,19,12,21,24.90
2016,08,19,12,22,24.90
2016,08,19,12,23,25.00
2016,08,19,12,24,25.00
2016,08,19,12,25,25.00
2016,08,19,12,26,25.10
2016,08,19,12,27,25.10
2016,08,19,12,28,25.10
2016,08,19,12,29,25.20
2016,08,19,12,30,25.30
2016,08,19,12,31,25.30
2016,08,19,12,32,25.50
2016,08,19,12,33,25.50
2016,08,19,12,34,25.60
2016,08,19,12,35,25.70
2016,08,19,12,36,25.80
2016,08,19,12,37,25.90
2016,08,19,12,38,26.00
2016,08,19,12,39,26.10
2016,08,19,12,40,26.20
2016,08,19,12,41,26.20
2016,08,19,12,42,26.20
2016,08,19,12,43,26.10
2016,08,19,12,44,26.00
2016,08,19,12,45,25.90
2016,08,19,12,46,25.90
2016,08,19,12,47,25.80
2016,08,19,12,48,25.80
2016,08,19,12,49,25.80
2016,08,19,12,50,25.80
2016,08,19,12,51,25.90
2016,08,19,12,52,26.10
2016,08,19,12,53,26.20
2016,08,19,12,54,26.30
2016,08,19,12,55,26.30
2016,08,19,12,56,26.40
2016,08,19,12,57,26.50
2016,08,19,12,58,26.60
2016,08,19,12,59,26.60
2016,08,19,13,00,26.70
2016,08,19,13,01,26.70
2016,08,19,13,02,26.70
2016,08,19,13,03,26.70
2016,08,19,13,04,26.90
2016,08,19,13,05,27.00
2016,08,19,13,06,27.10
2016,08,19,13,07,27.30
2016,08,19,13,08,27.20
2016,08,19,13,09,27.20
2016,08,19,13,10,27.10
2016,08,19,13,11,27.10
2016,08,19,13,12,27.10
2016,08,19,13,13,27.20
2016,08,19,13,14,27.30
2016,08,19,13,15,27.30
2016,08,19,13,16,27.30
2016,08,19,13,17,27.40
2016,08,19,13,18,27.40
2016,08,19,13,19,27.50
2016,08,19,13,20,27.60
2016,08,19,13,21,27.50
2016,08,19,13,22,27.40
2016,08,19,13,23,27.40
2016,08,19,13,24,27.40
2016,08,19,13,25,27.40
2016,08,19,13,26,27.40
2016,08,19,13,27,27.40
2016,08,19,13,28,27.40
2016,08,19,13,29,27.40
2016,08,19,13,30,27.40
2016,08,19,13,31,27.40
2016,08,19,13,32,27.50
2016,08,19,13,33,27.50
2016,08,19,13,34,27.50
2016,08,19,13,35,27.60
2016,08,19,13,36,27.60
2016,08,19,13,37,27.70
2016,08,19,13,38,27.80
2016,08,19,13,39,27.90
2016,08,19,13,40,28.00
2016,08,19,13,41,28.10
2016,08,19,13,42,28.10
2016,08,19,13,43,28.10
2016,08,19,13,44,28.20
2016,08,19,13,45,28.20
2016,08,19,13,46,28.20
2016,08,19,13,47,28.20
2016,08,19,13,48,28.30
2016,08,19,13,49,28.40
2016,08,19,13,50,28.40
2016,08,19,13,51,28.50
2016,08,19,13,52,28.60
2016,08,19,13,53,28.50
2016,08,19,13,54,28.40
2016,08,19,13,55,28.30
2016,08,19,13,56,28.10
2016,08,19,13,57,28.10
2016,08,19,13,58,28.00
2016,08,19,13,59,28.10
2016,08,19,14,00,28.10
2016,08,19,14,01,28.10
2016,08,19,14,02,28.10
2016,08,19,14,03,28.00
2016,08,19,14,04,27.90
2016,08,19,14,05,27.80
2016,08,19,14,06,27.80
2016,08,19,14,07,27.80
2016,08,19,14,08,27.80
2016,08,19,14,09,27.80
2016,08,19,14,10,27.90
2016,08,19,14,11,28.00
2016,08,19,14,12,28.00
2016,08,19,14,13,28.10
2016,08,19,14,14,28.10
2016,08,19,14,15,28.20
2016,08,19,14,16,28.20
2016,08,19,14,17,28.40
2016,08,19,14,18,28.50
2016,08,19,14,19,28.60
2016,08,19,14,20,28.60
2016,08,19,14,21,28.60
2016,08,19,14,22,28.60
2016,08,19,14,23,28.70
2016,08,19,14,24,28.80
2016,08,19,14,25,28.90
2016,08,19,14,26,28.90
2016,08,19,14,27,28.90
2016,08,19,14,28,28.90
2016,08,19,14,29,28.80
2016,08,19,14,30,28.70
2016,08,19,14,31,28.70
2016,08,19,14,32,28.60
2016,08,19,14,33,28.60
2016,08,19,14,34,28.60
2016,08,19,14,35,28.80
2016,08,19,14,36,28.90
2016,08,19,14,37,29.00
2016,08,19,14,38,29.20
2016,08,19,14,39,29.30
2016,08,19,14,40,29.50
2016,08,19,14,41,29.50
2016,08,19,14,42,29.60
2016,08,19,14,43,29.60
2016,08,19,14,44,29.60
2016,08,19,14,45,29.60
2016,08,19,14,46,29.60
2016,08,19,14,47,29.60
2016,08,19,14,48,29.70
2016,08,19,14,49,29.70
2016,08,19,14,50,29.80
2016,08,19,14,51,29.90
2016,08,19,14,52,29.90
2016,08,19,14,53,29.80
2016,08,19,14,54,29.80
2016,08,19,14,55,29.70
2016,08,19,14,56,29.70
2016,08,19,14,57,29.60
2016,08,19,14,58,29.50
2016,08,19,14,59,29.50
2016,08,19,15,00,29.50
2016,08,19,15,01,29.40
2016,08,19,15,02,29.30
2016,08,19,15,03,29.30
2016,08,19,15,04,29.30
2016,08,19,15,05,29.20
2016,08,19,15,06,29.10
2016,08,19,15,07,29.00
2016,08,19,15,08,29.00
2016,08,19,15,09,29.00
2016,08,19,15,10,29.10
2016,08,19,15,11,29.10
2016,08,19,15,12,29.20
2016,08,19,15,13,29.30
2016,08,19,15,14,29.40
2016,08,19,15,15,29.60
2016,08,19,15,16,29.70
2016,08,19,15,17,29.70
2016,08,19,15,18,29.70
2016,08,19,15,19,29.80
2016,08,19,15,20,29.80
2016,08,19,15,21,29.80
2016,08,19,15,22,29.80
2016,08,19,15,23,29.80
2016,08,19,15,24,29.80
2016,08,19,15,25,29.80
2016,08,19,15,26,29.80
2016,08,19,15,27,29.70
2016,08,19,15,28,29.60
2016,08,19,15,29,29.50
2016,08,19,15,30,29.60
2016,08,19,15,31,29.60
2016,08,19,15,32,29.70
2016,08,19,15,33,29.80
2016,08,19,15,34,29.80
2016,08,19,15,35,29.90
2016,08,19,15,36,30.00
2016,08,19,15,37,30.10
2016,08,19,15,38,30.10
2016,08,19,15,39,30.10
2016,08,19,15,40,30.20
2016,08,19,15,41,30.30
2016,08,19,15,42,30.40
2016,08,19,15,43,30.50
2016,08,19,15,44,30.60
2016,08,19,15,45,30.60
2016,08,19,15,46,30.70
2016,08,19,15,47,30.70
2016,08,19,15,48,30.70
2016,08,19,15,49,30.70
2016,08,19,15,50,30.60
2016,08,19,15,51,30.40
2016,08,19,15,52,30.40
2016,08,19,15,53,30.30
2016,08,19,15,54,30.30
2016,08,19,15,55,30.30
2016,08,19,15,56,30.40
2016,08,19,15,57,30.50
2016,08,19,15,58,30.60
2016,08,19,15,59,30.60
2016,08,19,16,00,30.50
2016,08,19,16,01,30.40
2016,08,19,16,02,30.30
2016,08,19,16,03,30.20
2016,08,19,16,04,30.10
2016,08,19,16,05,30.00
2016,08,19,16,06,29.80
2016,08,19,16,07,29.70
2016,08,19,16,08,29.70
2016,08,19,16,09,29.70
2016,08,19,16,10,29.70
2016,08,19,16,11,29.70
2016,08,19,16,12,29.70
2016,08,19,16,13,29.70
2016,08,19,16,14,29.70
2016,08,19,16,15,29.60
2016,08,19,16,16,29.50
2016,08,19,16,17,29.50
2016,08,19,16,18,29.40
2016,08,19,16,19,29.30
2016,08,19,16,20,29.30
2016,08,19,16,21,29.20
2016,08,19,16,22,29.30
2016,08,19,16,23,29.20
2016,08,19,16,24,29.10
2016,08,19,16,25,29.10
2016,08,19,16,26,29.10
2016,08,19,16,27,29.10
2016,08,19,16,28,29.10
2016,08,19,16,29,29.20
2016,08,19,16,30,29.30
2016,08,19,16,31,29.30
2016,08,19,16,32,29.40
2016,08,19,16,33,29.50
2016,08,19,16,34,29.60
2016,08,19,16,35,29.60
2016,08,19,16,36,29.50
2016,08,19,16,37,29.50
2016,08,19,16,38,29.40
2016,08,19,16,39,29.40
2016,08,19,16,40,29.50
2016,08,19,16,41,29.40
2016,08,19,16,42,29.40
2016,08,19,16,43,29.40
2016,08,19,16,44,29.40
2016,08,19,16,45,29.40
2016,08,19,16,46,29.40
2016,08,19,16,47,29.50
2016,08,19,16,48,29.50
2016,08,19,16,49,29.60
2016,08,19,16,50,29.60
2016,08,19,16,51,29.70
2016,08,19,16,52,29.80
2016,08,19,16,53,29.80
2016,08,19,16,54,29.90
2016,08,19,16,55,29.90
2016,08,19,16,56,29.90
2016,08,19,16,57,29.90
2016,08,19,16,58,29.90
2016,08,19,16,59,29.90
2016,08,19,17,00,29.80
2016,08,19,17,01,29.90
2016,08,19,17,02,29.90
2016,08,19,17,03,29.90
2016,08,19,17,04,29.90
2016,08,19,17,05,29.90
2016,08,19,17,06,29.90
2016,08,19,17,07,29.90
2016,08,19,17,08,29.80
2016,08,19,17,09,29.80
2016,08,19,17,10,29.80
2016,08,19,17,11,29.90
2016,08,19,17,12,29.90
2016,08,19,17,13,30.00
2016,08,19,17,14,30.20
2016,08,19,17,15,30.30
2016,08,19,17,16,30.40
2016,08,19,17,17,30.50
2016,08,19,17,18,30.60
2016,08,19,17,19,30.70